BON968 KLAX-VHHH

Flight info

Callsign BON968
Flight time N/A
Altitude 30000
Route SUMMR2 RIZIN DCT RZS J501 PYE J143 ENI C1486 VESPA DCT 42N30 DCT 45N137W 48N147W/N0484F320 50N159W 51N171W DCT ADK R451 POWAL/N0479F340 R451 HIXOR M523 IPGUD/N0479F360 Y800 ESNIP Y810 OLDIV Y802 LIGNI Y84 SAMUS T844 BUBDO A590 MDE V75 TOPAT/N0478F380 V75 NHC V91 MJC G581 ELATO V522 ABBEY
Aircraft B77L/H-SDE1E2E3FGHIJ2J3J4J5M1RWXYZ/LB1D1

Departure

Time 2026-05-04 13:46
Airport Los Angeles International Airport (KLAX)

Arrival

Time N/A
Airport Hong Kong International Airport (VHHH)
Time Latitude Longitude Altitude Speed Heading
2026-05-04 13:06 33.94396 -118.41128 99 ft 0 kts 85°
2026-05-04 13:32 33.94396 -118.41129 99 ft 1 kts 85°
2026-05-04 13:32 33.94393 -118.41159 100 ft 4 kts 83°
2026-05-04 13:33 33.94390 -118.41191 100 ft 3 kts 84°
2026-05-04 13:33 33.94386 -118.41217 99 ft 4 kts 61°
2026-05-04 13:33 33.94374 -118.41233 99 ft 4 kts 12°
2026-05-04 13:33 33.94350 -118.41233 99 ft 4 kts 352°
2026-05-04 13:34 33.94339 -118.41232 99 ft 0 kts 353°
2026-05-04 13:36 33.94360 -118.41235 100 ft 8 kts 353°
2026-05-04 13:37 33.94416 -118.41243 99 ft 8 kts 353°
2026-05-04 13:37 33.94474 -118.41251 100 ft 8 kts 353°
2026-05-04 13:37 33.94531 -118.41260 102 ft 8 kts 353°
2026-05-04 13:37 33.94587 -118.41268 99 ft 8 kts 353°
2026-05-04 13:38 33.94643 -118.41276 101 ft 8 kts 353°
2026-05-04 13:38 33.94691 -118.41248 102 ft 8 kts 57°
2026-05-04 13:38 33.94713 -118.41184 103 ft 8 kts 69°
2026-05-04 13:38 33.94729 -118.41115 101 ft 9 kts 84°
2026-05-04 13:39 33.94735 -118.41041 101 ft 9 kts 83°
2026-05-04 13:39 33.94742 -118.40967 101 ft 9 kts 83°
2026-05-04 13:39 33.94750 -118.40892 103 ft 10 kts 83°
2026-05-04 13:39 33.94759 -118.40803 103 ft 11 kts 83°
2026-05-04 13:40 33.94769 -118.40715 101 ft 11 kts 82°
2026-05-04 13:40 33.94782 -118.40629 101 ft 11 kts 65°
2026-05-04 13:40 33.94847 -118.40592 103 ft 11 kts 37°
2026-05-04 13:40 33.94872 -118.40509 104 ft 11 kts 81°
2026-05-04 13:41 33.94881 -118.40420 104 ft 11 kts 82°
2026-05-04 13:41 33.94891 -118.40331 105 ft 11 kts 83°
2026-05-04 13:41 33.94900 -118.40241 106 ft 11 kts 83°
2026-05-04 13:42 33.94917 -118.40067 105 ft 8 kts 83°
2026-05-04 13:42 33.94921 -118.40034 104 ft 0 kts 83°
2026-05-04 13:44 33.94921 -118.40027 104 ft 1 kts 83°
2026-05-04 13:44 33.94923 -118.40014 104 ft 2 kts 82°
2026-05-04 13:45 33.94928 -118.39971 104 ft 10 kts 78°
2026-05-04 13:45 33.94973 -118.39915 108 ft 10 kts 18°
2026-05-04 13:45 33.95033 -118.39937 109 ft 10 kts 302°
2026-05-04 13:45 33.95030 -118.40069 114 ft 33 kts 263°
2026-05-04 13:46 33.94973 -118.40623 110 ft 100 kts 263°
2026-05-04 13:46 33.94864 -118.41695 111 ft 156 kts 263°
2026-05-04 13:46 33.94708 -118.43154 307 ft 178 kts 263°
2026-05-04 13:46 33.94547 -118.44613 862 ft 181 kts 263°
2026-05-04 13:47 33.94401 -118.46116 1410 ft 181 kts 264°
2026-05-04 13:47 33.94315 -118.47640 1781 ft 184 kts 268°
2026-05-04 13:47 33.94268 -118.49208 2097 ft 191 kts 268°
2026-05-04 13:47 33.94224 -118.50823 2463 ft 192 kts 267°
2026-05-04 13:48 33.94118 -118.52424 2875 ft 191 kts 265°
2026-05-04 13:48 33.93985 -118.54041 3244 ft 194 kts 265°
2026-05-04 13:48 33.93852 -118.55706 3385 ft 210 kts 265°
2026-05-04 13:48 33.93709 -118.57522 3548 ft 227 kts 265°
2026-05-04 13:49 33.93553 -118.59504 3711 ft 247 kts 265°
2026-05-04 13:49 33.93388 -118.61600 4137 ft 255 kts 265°
2026-05-04 13:49 33.93218 -118.63745 4675 ft 260 kts 265°
2026-05-04 13:49 33.93048 -118.65924 5295 ft 262 kts 265°
2026-05-04 13:50 33.92879 -118.68108 5926 ft 263 kts 265°
2026-05-04 13:50 33.92707 -118.70309 6522 ft 266 kts 265°
2026-05-04 13:50 33.92534 -118.72532 7101 ft 268 kts 265°
2026-05-04 13:50 33.92359 -118.74778 7704 ft 270 kts 265°
2026-05-04 13:51 33.92184 -118.77033 8265 ft 272 kts 265°
2026-05-04 13:51 33.92006 -118.79298 8938 ft 267 kts 264°
2026-05-04 13:51 33.91835 -118.81483 9749 ft 259 kts 264°
2026-05-04 13:51 33.91677 -118.83632 10337 ft 257 kts 266°
2026-05-04 13:52 33.91782 -118.87939 11489 ft 257 kts 270°
2026-05-04 13:52 33.91873 -118.90084 12085 ft 257 kts 269°
2026-05-04 13:52 33.91952 -118.92227 12705 ft 257 kts 269°
2026-05-04 13:53 33.92022 -118.94379 13316 ft 257 kts 268°
2026-05-04 13:53 33.92088 -118.96528 13901 ft 257 kts 267°
2026-05-04 13:53 33.92151 -118.98675 14459 ft 258 kts 268°
2026-05-04 13:54 33.92856 -119.02956 15255 ft 282 kts 292°
2026-05-04 13:54 33.93918 -119.05040 15380 ft 301 kts 294°
2026-05-04 13:54 33.96291 -119.09563 15682 ft 337 kts 295°
2026-05-04 13:55 33.97572 -119.12022 15812 ft 355 kts 295°
2026-05-04 13:55 34.00203 -119.17095 17169 ft 356 kts 295°
2026-05-04 13:55 34.01791 -119.19447 17670 ft 375 kts 312°
2026-05-04 13:56 34.03920 -119.21348 18119 ft 384 kts 317°
2026-05-04 13:56 34.06128 -119.23191 18666 ft 388 kts 317°
2026-05-04 13:56 34.10591 -119.26928 19837 ft 394 kts 316°
2026-05-04 13:57 34.12871 -119.28872 19947 ft 409 kts 316°
2026-05-04 13:57 34.15233 -119.30903 20157 ft 421 kts 316°
2026-05-04 13:58 34.22527 -119.37176 21433 ft 437 kts 315°
2026-05-04 13:58 34.27503 -119.41464 22457 ft 442 kts 315°
2026-05-04 13:58 34.30015 -119.43636 22929 ft 445 kts 315°
2026-05-04 13:59 34.32534 -119.45817 23374 ft 448 kts 314°
2026-05-04 13:59 34.35077 -119.48020 23814 ft 451 kts 314°
2026-05-04 13:59 34.40154 -119.52512 24638 ft 447 kts 308°
2026-05-04 14:00 34.42120 -119.55294 24945 ft 427 kts 290°
2026-05-04 14:00 34.44604 -119.61715 25721 ft 423 kts 287°
2026-05-04 14:00 34.45915 -119.64917 26190 ft 426 kts 287°
2026-05-04 14:01 34.47249 -119.68129 26565 ft 428 kts 287°
2026-05-04 14:01 34.48588 -119.71356 26973 ft 431 kts 288°
2026-05-04 14:01 34.51984 -119.77551 27759 ft 448 kts 298°
2026-05-04 14:02 34.54021 -119.80428 28161 ft 457 kts 302°
2026-05-04 14:02 34.56340 -119.83151 28425 ft 468 kts 306°
2026-05-04 14:02 34.58778 -119.85811 28782 ft 472 kts 307°
2026-05-04 14:02 34.61241 -119.88443 29151 ft 473 kts 307°
2026-05-04 14:03 34.63718 -119.91091 29464 ft 475 kts 307°
2026-05-04 14:03 34.66192 -119.93749 29857 ft 474 kts 307°
2026-05-04 14:03 34.68649 -119.96405 30337 ft 471 kts 306°
2026-05-04 14:03 34.71086 -119.99052 30844 ft 468 kts 306°
2026-05-04 14:04 34.75919 -120.04343 31605 ft 467 kts 305°
2026-05-04 14:04 34.78324 -120.06983 31983 ft 467 kts 305°